EA1BIS-13 Weather Reports


time (UTC)temp
C
wind
direction
speed
KPH
gust
KPH
rain 1hr
cm
rain 24hr
cm
rain mn
cm
humidity
%
barometer
mb
20260504034425 8 23 1.6 4.8 0.00 0.00 0.00 80 1012.3
20260504032938 8 65 0.0 1.6 0.00 0.00 0.00 80 1012.4
20260504031430 8 66 0.0 3.2 0.00 0.00 0.00 80 1012.4
20260504025922 8 38 0.0 6.4 0.00 0.00 0.00 80 1012.3
20260504024451 8 33 0.0 4.8 0.00 0.00 0.00 80 1012.4
20260504022920 8 51 0.0 8.0 0.00 0.00 0.00 80 1012.4
20260504021431 8 65 0.0 4.8 0.00 0.00 0.00 80 1012.3
20260504015922 8 37 1.6 6.4 0.00 0.00 0.00 79 1012.4
20260504014431 8 64 0.0 4.8 0.00 0.00 0.00 79 1012.5
20260504012943 8 46 0.0 3.2 0.00 0.00 0.00 80 1012.5
20260504011434 8 87 1.6 6.4 0.00 0.00 0.00 80 1012.6
20260504005939 8 51 1.6 6.4 0.00 0.00 0.00 79 1012.7
20260504004447 8 59 1.6 4.8 0.00 0.00 0.00 79 1012.6
20260504003000 8 43 0.0 3.2 0.00 0.00 0.00 81 1012.8
20260504001430 8 52 0.0 1.6 0.00 0.00 0.00 82 1012.8
20260503235942 8 64 0.0 4.8 0.00 0.00 0.00 80 1012.7
20260503234431 8 48 0.0 3.2 0.00 0.00 0.00 81 1012.8
20260503232923 8 34 0.0 4.8 0.00 0.00 0.00 81 1012.7
20260503231453 8 30 1.6 6.4 0.00 0.00 0.00 80 1012.9
20260503225925 8 64 0.0 4.8 0.00 0.00 0.00 80 1012.8
20260503224437 8 49 0.0 6.4 0.00 0.00 0.00 79 1012.9
20260503222927 8 54 0.0 9.7 0.00 0.00 0.00 79 1012.9
20260503221439 9 131 0.0 4.8 0.00 0.00 0.00 79 1012.9
20260503215929 8 122 1.6 9.7 0.00 0.00 0.00 78 1013.0
20260503214420 8 97 0.0 3.2 0.00 0.00 0.00 80 1012.8
20260503212932 9 128 1.6 4.8 0.00 0.00 0.00 79 1012.8
20260503211424 9 106 1.6 11.3 0.00 0.00 0.00 77 1012.9
20260503205937 9 129 4.8 14.5 0.00 0.00 0.00 75 1012.7
20260503204427 9 51 1.6 12.9 0.00 0.00 0.00 76 1012.8
20260503202937 9 51 1.6 9.7 0.00 0.00 0.00 75 1012.5
20260503201427 10 29 4.8 17.7 0.00 0.00 0.00 74 1012.2
20260503195935 9 142 6.4 14.5 0.00 0.00 0.00 74 1011.9
20260503194428 9 11 3.2 12.9 0.00 0.00 0.00 73 1011.8
20260503192933 10 36 1.6 6.4 0.00 0.00 0.00 73 1011.7
20260503191427 10 57 3.2 11.3 0.00 0.00 0.00 72 1011.4
20260503185937 10 34 3.2 11.3 0.00 0.00 0.00 72 1011.3
20260503184444 10 58 0.0 9.7 0.00 0.00 0.00 70 1011.3
20260503182936 11 37 1.6 8.0 0.00 0.00 0.00 69 1011.2
20260503181426 11 134 4.8 20.9 0.00 0.00 0.00 67 1011.1
20260503175936 12 47 1.6 6.4 0.00 0.00 0.00 66 1011.4
20260503174427 13 108 1.6 9.7 0.00 0.00 0.00 62 1011.2
20260503172938 14 23 0.0 4.8 0.00 0.00 0.00 58 1010.7
20260503171427 15 229 3.2 8.0 0.00 0.00 0.00 57 1010.4
20260503081456 9 215 0.0 1.6 0.00 1.80 0.00 97 1014.0
20260503071423 7 215 0.0 1.6 0.00 2.39 0.00 97 1014.1
20260503054428 7 215 0.0 0.0 0.00 3.81 0.00 97 1013.6
20260503052938 7 215 0.0 0.0 0.00 3.81 0.00 97 1013.5
20260503051449 7 215 0.0 0.0 0.00 3.81 0.00 97 1013.7
20260503045959 7 215 0.0 0.0 0.00 3.81 0.00 97 1013.7
20260503044430 7 215 0.0 0.0 0.00 3.81 0.00 97 1013.7
20260503043000 7 215 0.0 0.0 0.00 3.81 0.00 97 1013.7
20260503041430 7 215 0.0 0.0 0.00 3.81 0.00 97 1013.8
20260503035922 7 215 0.0 0.0 0.00 3.81 0.00 97 1013.8